Temp
-5 -6 -6 -6 -6 -6 -6 -6 -7 -7 -7 -7 -7 -7 -7 -7 -7 -7 -7 -7 -7 -7 -7 -7 -7 -7 -7 -6 -6 -7 -7 -7 -7 -7 -7 -8 -8 -8 -8 -8 -8 -8
-6 -6 -6 -6 -6 -6 -6 -7 -7 -7 -7 -7 -7 -7 -7 -7 -7 -7 -7 -7 -7 -7 -7 -7 -7 -7 -6 -6 -6 -7 -7 -7 -7 -7 -7 -8 -8 -8 -8 -8 -8 -8
-6 -6 -6 -6 -6 -6 -7 -7 -7 -7 -7 -7 -7 -7 -7 -7 -7 -7 -7 -7 -7 -7 -7 -7 -7 -7 -7 -7 -7 -7 -7 -7 -7 -7 -7 -8 -8 -8 -8 -8 -8 -8
-6 -6 -6 -7 -7 -7 -7 -7 -7 -7 -7 -7 -7 -7 -7 -7 -7 -7 -7 -7 -7 -7 -7 -7 -7 -7 -7 -7 -7 -7 -7 -8 -8 -8 -8 -8 -8 -8 -8 -8 -8 -8
-6 -6 -7 -7 -7 -7 -7 -7 -6 -6 -7 -7 -7 -7 -7 -7 -7 -7 -7 -7 -7 -7 -7 -7 -7 -7 -7 -7 -7 -7 -8 -8 -8 -8 -8 -8 -9 -9 -9 -8 -8 -8
-6 -7 -7 -7 -7 -7 -7 -6 -6 -6 -7 -7 -7 -7 -7 -7 -7 -7 -7 -7 -7 -7 -7 -7 -7 -7 -7 -7 -8 -8 -8 -8 -8 -8 -8 -9 -9 -9 -9 -9 -9 -9
-7 -7 -7 -7 -7 -6 -6 -6 -6 -7 -7 -7 -7 -7 -7 -7 -7 -7 -7 -7 -7 -7 -7 -7 -7 -7 -7 -8 -8 -8 -9 -9 -9 -9 -9 -9 -9 -9 -9 -9 -9 -9
-7 -7 -7 -7 -7 -7 -7 -6 -7 -7 -7 -7 -7 -7 -7 -8 -8 -8 -8 -7 -7 -7 -7 -8 -7 -7 -8 -8 -8 -9 -9 -9 -9 -9 -9 -9 -9 -9 -9 -9 -9 -9
-7 -7 -7 -7 -7 -7 -7 -7 -7 -7 -7 -7 -7 -7 -8 -8 -8 -8 -8 -8 -8 -7 -8 -8 -8 -8 -8 -8 -9 -9 -9 -9 -9 -9 -9 -9 -9 -9 -9 -9 -9 -9
-7 -7 -7 -7 -7 -7 -7 -7 -7 -7 -7 -7 -7 -8 -8 -8 -8 -8 -8 -8 -8 -8 -8 -8 -8 -8 -8 -9 -9 -9 -9 -9 -9 -9 -9 -9 -9 -9 -9 -9 -9 -9
-7 -7 -7 -7 -7 -7 -7 -7 -7 -7 -7 -7 -8 -8 -8 -8 -8 -8 -8 -8 -8 -8 -8 -8 -8 -9 -9 -9 -9 -9 -9 -10 -9 -9 -9 -9 -9 -9 -9 -9 -9 -9
-7 -7 -7 -7 -7 -7 -7 -7 -7 -7 -7 -7 -8 -8 -8 -8 -8 -8 -8 -8 -8 -8 -8 -8 -8 -9 -9 -9 -9 -9 -9 -10 -9 -9 -9 -9 -9 -9 -9 -9 -9 -9
-7 -7 -7 -7 -7 -7 -7 -7 -8 -8 -8 -8 -8 -8 -8 -8 -8 -8 -8 -8 -8 -8 -8 -8 -9 -9 -9 -9 -9 -9 -9 -10 -10 -9 -9 -9 -9 -9 -9 -9 -9 -9
-8 -7 -7 -7 -7 -7 -7 -7 -8 -8 -8 -8 -8 -8 -8 -8 -8 -8 -8 -9 -9 -8 -8 -8 -9 -9 -9 -9 -9 -9 -9 -9 -9 -9 -9 -9 -9 -9 -9 -9 -9 -9
-8 -8 -7 -7 -7 -7 -7 -8 -8 -8 -8 -8 -8 -8 -8 -8 -8 -8 -9 -9 -9 -8 -8 -8 -8 -9 -9 -9 -9 -9 -9 -9 -9 -8 -8 -9 -9 -9 -9 -9 -9 -8
-8 -8 -8 -7 -7 -7 -7 -8 -8 -8 -8 -8 -8 -8 -8 -8 -8 -8 -9 -9 -9 -8 -8 -8 -8 -8 -9 -9 -9 -10 -9 -8 -8 -8 -8 -8 -8 -9 -9 -9 -9 -9
-7 -8 -8 -8 -7 -7 -8 -8 -8 -8 -8 -8 -8 -8 -9 -9 -9 -9 -9 -9 -9 -8 -8 -8 -8 -8 -8 -8 -9 -10 -9 -8 -9 -9 -9 -8 -8 -8 -8 -8 -9 -9
-7 -8 -8 -8 -8 -8 -8 -8 -8 -8 -8 -8 -8 -8 -8 -9 -9 -9 -9 -9 -9 -8 -8 -8 -8 -8 -8 -8 -8 -9 -9 -9 -10 -9 -9 -9 -9 -8 -8 -8 -8 -8
-7 -7 -8 -8 -8 -8 -8 -8 -8 -8 -8 -8 -8 -8 -8 -8 -9 -9 -9 -9 -9 -8 -8 -8 -8 -8 -8 -8 -7 -8 -9 -9 -9 -9 -9 -9 -9 -9 -9 -8 -8 -8
-7 -7 -7 -8 -8 -8 -8 -8 -8 -8 -8 -8 -8 -8 -8 -8 -9 -9 -9 -9 -8 -8 -8 -8 -8 -8 -8 -8 -7 -7 -8 -8 -8 -9 -9 -9 -9 -9 -9 -9 -9 -8
-7 -7 -7 -8 -8 -8 -8 -8 -8 -8 -8 -8 -8 -8 -8 -9 -9 -9 -9 -9 -8 -8 -8 -8 -8 -8 -8 -8 -7 -7 -7 -8 -8 -9 -9 -9 -9 -9 -9 -9 -9 -9
-7 -7 -7 -8 -8 -8 -8 -8 -8 -8 -8 -8 -8 -8 -8 -8 -9 -9 -9 -9 -8 -8 -8 -8 -8 -8 -8 -8 -8 -7 -7 -8 -8 -8 -9 -9 -9 -9 -9 -9 -9 -9
-7 -7 -7 -8 -7 -7 -8 -8 -8 -8 -8 -8 -8 -8 -8 -8 -8 -9 -9 -8 -8 -8 -8 -8 -8 -8 -8 -8 -8 -8 -8 -8 -8 -8 -9 -9 -9 -8 -8 -9 -9 -9
-7 -7 -8 -8 -7 -7 -8 -8 -8 -8 -8 -8 -8 -8 -8 -8 -8 -8 -8 -8 -8 -8 -8 -8 -8 -8 -9 -9 -9 -9 -9 -9 -9 -9 -9 -8 -8 -8 -8 -9 -9 -9
-7 -7 -8 -8 -7 -7 -8 -8 -8 -8 -8 -8 -8 -8 -8 -8 -8 -8 -8 -8 -8 -8 -8 -8 -8 -9 -9 -10 -10 -10 -10 -10 -9 -9 -9 -9 -8 -9 -9 -9 -9 -9
-7 -7 -8 -8 -7 -7 -8 -8 -8 -8 -8 -8 -8 -8 -8 -8 -8 -8 -8 -8 -8 -8 -8 -8 -9 -9 -10 -10 -10 -10 -10 -9 -9 -9 -9 -9 -9 -9 -9 -9 -9 -9
Height
5919 5919 5919 5919 5919 5919 5920 5920 5920 5919 5919 5919 5919 5919 5919 5919 5920 5920 5919 5919 5919 5919 5918 5918 5917 5916 5915 5914 5913 5911 5910 5909 5907 5906 5904 5903 5903 5902 5900 5899 5898 5896
5917 5917 5917 5917 5917 5917 5917 5918 5917 5917 5917 5917 5917 5917 5918 5918 5919 5919 5919 5918 5918 5918 5917 5917 5916 5915 5914 5913 5911 5910 5909 5907 5906 5904 5903 5901 5901 5900 5899 5897 5896 5894
5914 5915 5915 5915 5914 5914 5915 5915 5915 5915 5915 5915 5915 5916 5916 5917 5917 5918 5918 5917 5917 5916 5916 5915 5915 5914 5913 5911 5910 5909 5907 5906 5904 5903 5902 5900 5899 5898 5897 5896 5894 5893
5911 5912 5912 5912 5912 5912 5912 5912 5912 5912 5913 5913 5914 5914 5915 5915 5916 5916 5917 5916 5916 5915 5914 5914 5913 5912 5911 5910 5908 5907 5906 5904 5903 5902 5900 5899 5898 5897 5895 5894 5893 5891
5908 5909 5909 5909 5909 5909 5909 5909 5910 5910 5911 5911 5912 5913 5913 5914 5914 5915 5915 5915 5914 5913 5912 5911 5910 5910 5909 5908 5907 5906 5905 5904 5902 5901 5899 5898 5897 5895 5894 5892 5890 5889
5904 5905 5906 5906 5906 5906 5906 5907 5907 5908 5909 5909 5910 5911 5912 5912 5913 5913 5913 5913 5912 5911 5910 5909 5908 5908 5907 5906 5905 5904 5903 5902 5901 5899 5898 5896 5895 5893 5892 5890 5888 5887
5901 5902 5902 5903 5903 5904 5904 5904 5905 5906 5907 5907 5908 5909 5910 5911 5911 5911 5911 5911 5910 5909 5907 5907 5906 5906 5905 5904 5903 5903 5901 5900 5898 5897 5896 5894 5893 5891 5890 5888 5886 5885
5898 5899 5900 5900 5901 5901 5902 5902 5903 5904 5905 5905 5906 5907 5908 5909 5909 5909 5909 5909 5908 5907 5905 5904 5904 5904 5903 5902 5901 5900 5899 5898 5896 5895 5893 5892 5890 5889 5888 5886 5884 5882
5896 5897 5897 5898 5898 5899 5900 5900 5901 5902 5903 5904 5904 5905 5906 5906 5907 5907 5906 5906 5905 5904 5903 5902 5902 5902 5901 5900 5898 5897 5896 5895 5894 5892 5891 5889 5887 5886 5884 5883 5881 5879
5894 5894 5895 5895 5896 5896 5897 5898 5899 5900 5900 5901 5902 5903 5904 5904 5904 5904 5904 5903 5902 5901 5901 5900 5900 5900 5899 5897 5896 5895 5893 5892 5891 5890 5888 5886 5885 5883 5881 5879 5877 5876
5892 5892 5893 5893 5894 5894 5895 5896 5897 5897 5898 5899 5900 5901 5901 5902 5902 5902 5901 5901 5900 5899 5898 5898 5897 5897 5896 5895 5894 5892 5891 5889 5888 5887 5885 5883 5881 5879 5877 5875 5874 5873
5890 5890 5891 5891 5891 5892 5893 5894 5895 5895 5896 5897 5898 5898 5899 5899 5899 5899 5899 5899 5898 5897 5896 5895 5895 5894 5893 5892 5891 5890 5888 5886 5885 5884 5882 5880 5877 5876 5875 5873 5871 5870
5888 5888 5888 5889 5889 5890 5891 5891 5892 5893 5894 5895 5895 5896 5897 5897 5897 5897 5897 5896 5896 5895 5894 5893 5893 5892 5890 5889 5888 5886 5885 5883 5882 5881 5879 5877 5875 5873 5872 5870 5869 5867
5886 5886 5886 5887 5887 5887 5888 5889 5890 5891 5891 5892 5893 5894 5894 5894 5895 5894 5894 5894 5893 5892 5891 5891 5890 5889 5888 5886 5884 5883 5882 5880 5879 5879 5877 5875 5873 5871 5869 5867 5866 5865
5884 5884 5884 5884 5885 5885 5886 5887 5887 5888 5888 5889 5890 5891 5892 5892 5892 5892 5891 5891 5890 5889 5889 5889 5888 5887 5885 5883 5881 5879 5878 5878 5878 5877 5875 5873 5871 5869 5867 5865 5863 5862
5882 5882 5882 5882 5883 5883 5884 5884 5884 5885 5885 5886 5887 5888 5889 5889 5889 5889 5889 5888 5887 5886 5886 5886 5885 5884 5883 5880 5877 5874 5874 5875 5876 5874 5872 5870 5868 5866 5864 5862 5860 5859
5879 5879 5880 5880 5880 5881 5881 5881 5881 5882 5883 5883 5884 5885 5886 5886 5887 5886 5886 5885 5884 5884 5884 5883 5883 5882 5880 5877 5873 5869 5870 5872 5872 5870 5868 5867 5865 5863 5861 5859 5857 5855
5877 5876 5877 5877 5878 5878 5878 5878 5878 5879 5880 5881 5882 5882 5883 5883 5884 5884 5883 5883 5882 5882 5881 5881 5881 5880 5878 5874 5868 5866 5869 5870 5867 5865 5865 5864 5862 5860 5858 5856 5853 5851
5874 5874 5874 5875 5875 5875 5875 5875 5875 5876 5877 5878 5879 5879 5879 5880 5881 5881 5880 5880 5879 5879 5879 5879 5879 5877 5875 5871 5866 5864 5866 5865 5862 5862 5862 5860 5858 5856 5854 5852 5850 5848
5870 5870 5871 5872 5872 5872 5872 5872 5873 5874 5874 5875 5876 5876 5877 5877 5877 5877 5877 5877 5876 5876 5876 5877 5876 5874 5872 5869 5865 5862 5860 5858 5859 5859 5858 5856 5853 5851 5849 5847 5845 5843
5867 5867 5868 5868 5868 5868 5868 5869 5870 5871 5871 5872 5872 5873 5873 5874 5874 5874 5874 5874 5873 5873 5873 5873 5872 5870 5868 5866 5864 5861 5857 5854 5853 5852 5851 5850 5848 5846 5844 5843 5841 5839
5864 5864 5864 5864 5864 5864 5865 5866 5866 5867 5868 5868 5869 5869 5870 5870 5870 5870 5870 5870 5870 5870 5869 5869 5868 5866 5865 5863 5861 5859 5855 5851 5848 5845 5845 5844 5842 5841 5840 5838 5836 5835
5861 5861 5860 5860 5861 5861 5862 5862 5863 5864 5864 5865 5865 5865 5866 5866 5866 5866 5866 5866 5866 5866 5865 5864 5863 5862 5861 5859 5858 5856 5853 5850 5846 5844 5842 5841 5838 5837 5836 5835 5833 5831
5857 5857 5857 5857 5857 5857 5858 5859 5860 5860 5861 5861 5861 5861 5862 5862 5862 5862 5862 5862 5862 5861 5860 5859 5858 5857 5856 5855 5853 5851 5848 5846 5844 5842 5840 5838 5836 5834 5833 5831 5829 5827
5853 5853 5853 5853 5853 5853 5854 5855 5856 5857 5857 5857 5857 5857 5857 5858 5858 5858 5859 5858 5858 5857 5855 5855 5854 5853 5851 5849 5848 5845 5843 5842 5840 5838 5836 5835 5833 5831 5829 5827 5825 5822
5848 5849 5849 5849 5849 5849 5850 5851 5852 5852 5852 5852 5853 5853 5853 5853 5854 5854 5854 5854 5853 5852 5851 5850 5849 5848 5846 5844 5842 5840 5838 5837 5836 5834 5832 5831 5830 5828 5825 5823 5820 5818
Wind_Speed
16 15 15 15 14 13 13 13 13 14 13 12 11 10 8 7 6 7 8 9 9 10 9 10 11 12 13 14 15 15 15 16 17 19 20 20 20 20 20 19 18 17
18 17 17 16 16 15 14 14 14 14 14 12 10 9 7 5 5 6 8 9 9 9 9 10 11 13 14 15 16 16 16 17 19 20 22 23 22 22 21 21 20 20
20 19 18 18 18 17 16 14 14 14 13 11 9 7 5 4 4 5 6 8 9 9 10 11 13 14 14 15 16 16 17 18 20 22 23 24 25 25 24 23 23 23
21 20 20 20 19 18 16 14 14 14 12 10 9 6 4 4 4 5 5 7 9 10 11 12 14 14 15 16 17 18 18 19 21 23 24 25 26 26 26 26 25 24
20 20 20 20 19 17 16 15 13 13 12 10 8 6 4 4 4 5 6 7 9 11 12 13 14 15 16 17 18 19 20 20 21 23 25 25 25 26 26 26 27 26
20 20 20 19 18 17 15 14 13 12 12 11 8 6 5 4 5 5 7 8 10 12 13 14 15 16 18 19 19 20 20 21 22 24 25 25 25 25 25 26 28 28
19 19 19 19 18 16 15 14 13 13 12 10 8 6 5 5 5 6 8 9 11 13 14 15 16 17 19 21 21 21 22 22 24 25 26 26 26 26 26 27 28 29
18 19 19 18 17 15 15 14 14 13 12 10 8 7 6 6 6 7 9 11 12 13 14 16 17 19 21 22 22 22 23 24 24 25 26 27 27 28 28 29 29 30
17 18 18 17 16 16 15 14 14 14 12 10 8 8 7 7 8 9 10 12 12 13 15 16 18 20 21 21 21 22 24 24 24 25 26 27 28 30 30 30 30 31
16 17 17 16 16 16 16 15 15 14 11 10 9 8 9 9 9 10 11 11 12 14 15 17 19 20 20 20 22 23 25 26 26 27 28 28 29 30 30 30 30 31
16 16 16 16 16 16 16 16 15 13 12 11 10 10 10 10 11 11 11 11 12 14 16 18 19 19 20 21 23 25 27 28 29 30 29 29 28 29 29 30 30 31
15 15 15 16 16 16 17 17 15 14 13 12 11 12 12 12 12 11 10 11 13 15 17 19 20 20 21 23 24 26 28 30 32 32 31 30 30 30 29 30 31 32
14 14 16 17 17 18 18 17 16 15 14 14 14 14 13 13 12 11 10 12 14 16 18 20 21 22 23 25 26 26 29 32 34 33 32 32 33 32 30 30 31 32
15 15 16 18 19 19 18 17 16 15 15 16 16 15 14 13 12 11 12 13 16 18 20 21 22 23 25 26 27 27 29 32 34 34 33 33 33 31 30 30 31 32
17 17 17 18 19 18 17 16 16 17 17 17 17 16 15 13 12 12 12 14 17 20 21 23 24 25 26 28 30 30 31 33 33 33 33 33 34 32 30 30 30 31
21 20 19 19 18 18 17 18 18 19 19 18 18 17 15 13 13 13 13 15 19 21 23 25 26 27 29 31 33 34 35 33 32 33 33 32 34 33 31 30 29 30
24 23 22 21 19 18 19 20 21 21 20 20 20 17 15 14 14 14 15 17 20 22 24 26 28 29 31 34 37 39 38 33 30 32 33 32 33 32 31 30 29 29
26 26 24 22 21 20 20 22 23 22 21 21 20 18 16 16 15 15 17 19 21 23 26 27 28 31 34 37 40 41 37 33 33 34 34 33 33 32 31 30 29 29
27 28 27 25 23 22 23 24 25 24 23 22 21 20 19 18 17 18 19 21 23 25 27 27 29 32 35 37 41 41 38 36 37 36 34 34 34 33 32 31 31 31
29 29 28 27 25 25 25 25 26 25 25 24 23 21 20 19 19 19 20 23 25 27 27 28 31 34 36 36 38 41 43 42 38 35 35 37 36 34 35 34 34 33
31 31 30 29 28 27 27 26 26 26 26 26 24 22 21 21 21 21 22 25 27 28 29 30 33 35 36 36 37 39 44 44 41 40 41 40 38 38 39 38 37 36
32 32 32 31 31 29 28 27 27 27 27 27 25 23 23 22 21 22 23 26 28 30 31 33 35 36 36 38 39 40 43 45 46 46 45 43 43 43 43 42 41 39
34 34 34 34 33 31 30 28 27 27 27 27 27 25 24 23 22 23 25 28 29 32 33 35 36 38 39 41 42 44 46 46 46 45 45 45 45 45 45 44 43 41
35 35 36 35 34 33 31 29 28 28 28 28 28 26 25 25 24 25 27 29 31 33 34 36 38 40 42 44 46 47 48 46 43 43 43 44 44 45 46 45 44 43
37 36 37 37 36 35 33 30 29 29 30 30 29 28 27 27 26 26 28 29 31 32 34 37 39 41 45 46 44 43 42 40 39 40 42 43 44 45 45 45 45 44
39 38 38 38 37 37 35 32 30 31 32 31 30 29 29 27 27 27 28 29 30 32 35 37 39 42 43 41 37 36 36 37 38 40 42 44 45 45 46 47 46 44
Wind_Direction
247 249 250 251 252 254 256 259 266 273 276 274 271 270 274 280 288 296 301 310 319 322 327 333 336 338 339 338 338 339 339 338 337 336 337 338 341 341 338 334 329 324
249 250 252 253 252 253 255 258 263 269 270 266 262 261 267 277 289 297 302 310 317 321 324 326 329 331 333 333 334 334 334 333 332 333 334 335 337 339 337 333 329 324
249 250 251 250 251 254 255 255 258 261 260 255 250 247 255 272 286 292 298 307 315 318 319 319 322 324 327 329 331 331 331 331 331 332 333 333 335 337 337 334 330 324
246 248 249 250 251 253 252 250 249 251 248 240 234 235 242 260 277 289 297 304 310 312 312 314 317 320 323 327 328 329 330 332 334 335 334 333 335 336 337 336 332 325
245 246 247 248 247 245 244 242 238 236 234 227 222 226 238 257 277 288 295 301 304 306 308 311 315 319 324 326 327 329 332 335 338 339 337 335 336 338 339 338 337 331
240 241 241 240 238 235 233 231 227 224 223 222 219 224 237 254 271 281 288 296 298 301 306 311 317 323 325 327 332 339 343 343 343 342 339 337 337 340 341 340 339 336
232 233 233 233 231 226 223 222 219 216 217 219 221 228 238 249 261 271 280 288 293 299 306 313 320 326 330 333 340 348 351 349 346 344 342 338 338 339 339 338 337 336
227 229 229 228 225 220 216 215 214 212 212 218 226 233 237 245 256 265 275 283 291 301 310 317 324 331 336 341 345 348 350 350 348 344 342 340 339 338 336 334 333 333
225 227 227 224 221 217 213 211 211 209 210 218 229 236 237 243 254 264 275 285 295 306 313 320 328 335 341 344 345 345 346 347 346 343 340 339 338 335 332 329 327 327
225 226 225 222 219 215 211 209 208 209 213 221 229 231 233 243 255 265 277 288 299 308 315 322 329 337 341 340 340 340 340 341 342 341 338 336 333 330 326 323 322 322
227 226 224 221 219 215 211 209 208 212 219 224 224 223 230 243 254 263 275 288 300 308 315 322 328 334 336 334 335 336 336 337 339 339 337 332 327 323 321 320 319 321
230 227 224 221 220 216 213 212 212 217 222 221 216 218 229 242 249 259 273 289 301 309 315 320 324 329 330 330 332 333 333 335 336 337 336 332 327 325 325 323 320 320
237 232 226 224 223 219 218 218 218 217 217 214 213 219 229 236 243 257 275 291 300 307 312 316 321 326 326 326 329 329 330 331 332 333 335 334 332 329 327 325 323 323
245 241 233 230 228 225 225 223 219 216 213 212 214 219 225 230 243 264 282 294 300 304 310 315 319 321 321 322 323 324 325 326 327 331 335 337 335 330 326 323 324 326
246 247 243 238 234 233 229 221 215 215 216 217 216 215 220 231 251 272 287 293 297 303 309 313 316 317 317 317 317 318 319 320 327 334 335 333 332 330 326 323 321 324
244 247 248 245 241 237 230 218 213 216 221 221 217 213 221 240 259 273 283 287 293 301 307 310 314 316 316 316 315 314 315 318 327 332 331 329 330 329 326 323 321 322
244 245 248 249 246 241 232 222 217 219 223 223 218 218 231 248 259 269 277 283 290 297 302 307 313 317 318 318 314 312 316 320 322 324 327 330 331 329 326 324 322 320
247 245 247 249 249 246 238 228 222 221 223 221 220 227 241 249 255 263 272 280 287 293 298 305 313 318 320 318 313 313 320 324 320 321 328 330 329 327 325 323 321 318
252 248 248 249 251 249 244 236 227 223 223 221 223 233 244 249 254 261 270 280 287 292 299 307 314 318 319 315 312 315 319 318 317 322 327 327 326 327 325 324 322 319
255 253 250 250 250 250 248 242 234 227 224 222 226 236 245 249 255 263 273 282 288 294 302 309 312 313 313 311 312 313 313 314 317 320 323 325 326 326 326 325 323 320
255 255 253 251 251 250 249 245 238 231 226 225 230 238 245 250 258 268 278 285 291 299 305 308 309 310 309 310 310 308 307 312 316 317 321 326 326 325 326 325 323 321
254 255 255 254 253 251 249 245 240 234 230 230 234 241 247 254 264 273 281 287 294 302 305 306 309 310 310 310 310 306 304 307 309 312 318 323 322 322 324 323 322 321
252 252 254 256 256 253 249 244 239 236 235 236 239 245 251 259 268 275 283 290 297 302 304 305 307 310 310 309 308 305 303 302 303 306 313 316 317 319 319 319 319 319
250 250 253 256 257 254 248 242 237 237 239 241 244 249 257 263 270 279 287 294 299 301 302 304 306 308 307 306 305 302 300 299 302 306 310 312 314 315 315 315 316 316
249 249 251 254 256 254 247 240 237 239 241 244 247 253 259 264 272 281 288 295 298 299 302 306 307 306 305 304 304 302 300 302 306 309 310 311 312 313 312 313 313 314
248 247 248 252 254 252 245 239 238 240 243 247 251 255 261 267 273 280 287 293 297 300 305 307 305 304 304 305 305 304 306 308 310 311 311 311 312 311 310 311 312 313